Date String (YYYY-MM-DD hh:mm:ss) UTC,Instrument flags,Ambient pressure (hPa),Sample flow (lpm),Bypass flow (lpm),Sample temperature (°C),Ambient temperature (°C),ASC tube jacket temperature (°C),LED temperature (°C),Box temperature (°C),Sample RH (%),Span deviation,Mass concentration (μg/m³),Mass concentration (μg/m³),Mass concentration (μg/m³)
DateTimeUTC,F1_M11,P_M11,Q1_M11,Q2_M11,T1_M11,T2_M11,T3_M11,T4_M11,T5_M11,U1_M11,ZSPAN_M11,X2_M11,X0_M11,X1_M11
2022-12-09 23:00:00,,0820.8,5.02,0.00,23.9,22.2,00.0,32.9,25.6,09.1,0000.0,0001.32,0005.03,0000.95
2022-12-09 23:01:00,,0820.9,4.99,0.00,23.9,22.2,00.0,32.8,25.6,09.1,0000.0,0001.29,0003.38,0000.95
2022-12-09 23:02:00,,0820.9,4.99,0.00,23.9,22.1,00.0,32.8,25.6,09.1,0000.0,0001.25,0003.23,0000.95
2022-12-09 23:03:00,,0820.9,5.00,0.00,23.8,22.1,00.0,32.8,25.5,09.2,0000.0,0001.27,0002.98,0000.96
2022-12-09 23:04:00,,0820.8,5.02,0.00,23.8,22.1,00.0,32.8,25.6,09.1,0000.0,0001.27,0003.05,0000.95
2022-12-09 23:05:00,,0820.8,4.98,0.00,23.8,22.1,00.0,32.8,25.5,09.0,0000.0,0001.27,0003.07,0000.94
2022-12-09 23:06:00,,0820.9,4.99,0.00,23.8,22.0,00.0,32.7,25.5,09.1,0000.0,0001.26,0002.84,0000.95
2022-12-09 23:07:00,,0820.9,5.03,0.00,23.8,22.0,00.0,32.7,25.5,09.2,0000.0,0001.24,0002.66,0000.95
2022-12-09 23:08:00,,0820.9,4.99,0.00,23.7,22.0,00.0,32.7,25.4,09.1,0000.0,0001.20,0002.25,0000.96
2022-12-09 23:09:00,,0820.9,4.99,0.00,23.7,21.9,00.0,32.7,25.4,09.2,0000.0,0001.19,0001.86,0000.96
2022-12-09 23:10:00,,0820.9,5.00,0.00,23.7,21.9,00.0,32.7,25.3,09.2,0000.0,0001.22,0002.14,0000.96
2022-12-09 23:11:00,,0820.9,5.02,0.00,23.6,21.9,00.0,32.6,25.3,09.2,0000.0,0001.22,0002.52,0000.96
2022-12-09 23:12:00,,0820.9,5.00,0.00,23.6,21.9,00.0,32.6,25.4,09.2,0000.0,0001.24,0002.58,0000.96
2022-12-09 23:13:00,,0820.9,4.98,0.00,23.6,21.8,00.0,32.6,25.4,09.1,0000.0,0001.25,0002.61,0000.95
2022-12-09 23:14:00,,0820.9,5.01,0.00,23.6,21.8,00.0,32.6,25.3,09.1,0000.0,0001.22,0002.83,0000.94
2022-12-09 23:15:00,,0820.8,5.01,0.00,23.6,21.8,00.0,32.6,25.3,09.2,0000.0,0001.24,0002.97,0000.94
2022-12-09 23:16:00,,0820.9,4.98,0.00,23.5,21.8,00.0,32.5,25.3,09.2,0000.0,0001.26,0002.98,0000.93
2022-12-09 23:17:00,,0820.9,5.01,0.00,23.5,21.7,00.0,32.5,25.2,09.2,0000.0,0001.26,0003.14,0000.91
2022-12-09 23:18:00,,0821.0,5.02,0.00,23.5,21.7,00.0,32.5,25.2,09.2,0000.0,0001.30,0003.52,0000.91
2022-12-09 23:19:00,,0821.0,4.99,0.00,23.5,21.6,00.0,32.5,25.1,09.2,0000.0,0001.31,0003.59,0000.91
2022-12-09 23:20:00,,0821.0,4.99,0.00,23.4,21.6,00.0,32.5,25.0,09.3,0000.0,0001.31,0003.63,0000.90
2022-12-09 23:21:00,,0821.0,5.03,0.00,23.4,21.6,00.0,32.4,25.0,09.3,0000.0,0001.27,0003.36,0000.90
2022-12-09 23:22:00,,0821.1,4.99,0.00,23.4,21.6,00.0,32.4,25.0,09.3,0000.0,0001.24,0002.87,0000.89
2022-12-09 23:23:00,,0821.0,4.98,0.00,23.4,21.6,00.0,32.4,25.0,09.2,0000.0,0001.22,0002.84,0000.88
2022-12-09 23:24:00,,0821.0,5.03,0.00,23.3,21.6,00.0,32.4,25.0,09.1,0000.0,0001.21,0002.83,0000.87
2022-12-09 23:25:00,,0821.1,4.99,0.00,23.3,21.5,00.0,32.3,25.0,09.1,0000.0,0001.20,0002.47,0000.87
2022-12-09 23:26:00,,0821.0,4.98,0.00,23.3,21.5,00.0,32.3,25.0,09.2,0000.0,0001.18,0002.29,0000.86
2022-12-09 23:27:00,,0821.0,5.00,0.00,23.3,21.5,00.0,32.3,24.9,09.2,0000.0,0001.16,0002.22,0000.87
2022-12-09 23:28:00,,0821.0,5.02,0.00,23.3,21.5,00.0,32.3,24.9,09.2,0000.0,0001.15,0002.13,0000.87
2022-12-09 23:29:00,,0821.0,4.99,0.00,23.2,21.5,00.0,32.3,24.9,09.2,0000.0,0001.14,0001.82,0000.86
2022-12-09 23:30:00,,0821.0,4.98,0.00,23.2,21.4,00.0,32.2,24.8,09.2,0000.0,0001.13,0001.79,0000.85
2022-12-09 23:31:00,,0820.9,5.01,0.00,23.2,21.4,00.0,32.2,24.8,09.1,0000.0,0001.10,0001.73,0000.85
2022-12-09 23:32:00,,0820.9,5.01,0.00,23.2,21.4,00.0,32.2,24.9,09.1,0000.0,0001.09,0001.72,0000.84
2022-12-09 23:33:00,,0820.9,4.98,0.00,23.2,21.4,00.0,32.2,24.9,09.1,0000.0,0001.10,0001.74,0000.83
2022-12-09 23:34:00,,0821.0,5.01,0.00,23.1,21.3,00.0,32.2,24.8,09.2,0000.0,0001.16,0001.91,0000.84
2022-12-09 23:35:00,,0821.0,5.01,0.00,23.1,21.3,00.0,32.1,24.8,09.2,0000.0,0001.15,0001.91,0000.83
2022-12-09 23:36:00,,0821.0,4.99,0.00,23.1,21.3,00.0,32.1,24.7,09.1,0000.0,0001.15,0001.91,0000.83
2022-12-09 23:37:00,,0821.0,4.98,0.00,23.1,21.3,00.0,32.1,24.7,09.0,0000.0,0001.15,0001.94,0000.83
2022-12-09 23:38:00,,0820.9,5.04,0.00,23.0,21.3,00.0,32.1,24.8,09.0,0000.0,0001.15,0001.98,0000.83
2022-12-09 23:39:00,,0820.9,4.98,0.00,23.0,21.3,00.0,32.0,24.7,08.9,0000.0,0001.18,0002.02,0000.82
2022-12-09 23:40:00,,0821.0,4.98,0.00,23.0,21.2,00.0,32.0,24.6,08.8,0000.0,0001.19,0002.00,0000.82
2022-12-09 23:41:00,,0820.9,5.01,0.00,23.0,21.2,00.0,32.0,24.6,08.8,0000.0,0001.18,0001.97,0000.82
2022-12-09 23:42:00,,0821.0,5.01,0.00,22.9,21.2,00.0,32.0,24.6,08.7,0000.0,0001.20,0002.05,0000.81
2022-12-09 23:43:00,,0821.0,4.98,0.00,22.9,21.2,00.0,32.0,24.6,08.7,0000.0,0001.21,0002.64,0000.81
2022-12-09 23:44:00,,0821.0,4.98,0.00,22.9,21.2,00.0,31.9,24.6,08.7,0000.0,0001.22,0003.49,0000.82
2022-12-09 23:45:00,,0821.0,5.01,0.00,22.9,21.2,00.0,31.9,24.6,08.8,0000.0,0001.17,0003.34,0000.81
2022-12-09 23:46:00,,0821.0,5.02,0.00,22.8,21.1,00.0,31.9,24.5,08.8,0000.0,0001.14,0003.24,0000.81
2022-12-09 23:47:00,,0821.0,4.99,0.00,22.8,21.1,00.0,31.9,24.6,08.7,0000.0,0001.13,0003.19,0000.81
2022-12-09 23:48:00,,0821.0,4.99,0.00,22.8,21.1,00.0,31.9,24.6,08.7,0000.0,0001.15,0003.18,0000.80
2022-12-09 23:49:00,,0821.1,5.01,0.00,22.8,21.1,00.0,31.8,24.4,08.7,0000.0,0001.15,0003.17,0000.80
2022-12-09 23:50:00,,0821.1,5.02,0.00,22.8,21.1,00.0,31.8,24.5,08.7,0000.0,0001.12,0003.11,0000.80
2022-12-09 23:51:00,,0821.1,4.99,0.00,22.7,21.0,00.0,31.8,24.5,08.7,0000.0,0001.08,0004.25,0000.81
2022-12-09 23:52:00,,0821.1,4.99,0.00,22.7,21.0,00.0,31.8,24.4,08.7,0000.0,0001.06,0004.67,0000.81
2022-12-09 23:53:00,,0821.0,5.03,0.00,22.7,21.0,00.0,31.7,24.4,08.6,0000.0,0001.04,0004.59,0000.81
2022-12-09 23:54:00,,0821.1,4.99,0.00,22.7,21.0,00.0,31.7,24.4,08.6,0000.0,0001.06,0004.23,0000.82
2022-12-09 23:55:00,,0821.1,4.98,0.00,22.6,21.0,00.0,31.7,24.3,08.6,0000.0,0001.09,0003.28,0000.81
2022-12-09 23:56:00,,0821.1,5.00,0.00,22.6,21.0,00.0,31.7,24.3,08.5,0000.0,0001.08,0003.27,0000.81
2022-12-09 23:57:00,,0821.2,5.02,0.00,22.6,21.0,00.0,31.6,24.3,08.6,0000.0,0001.09,0003.33,0000.80
2022-12-09 23:58:00,,0821.1,4.99,0.00,22.6,20.9,00.0,31.6,24.2,08.7,0000.0,0001.10,0003.34,0000.81
2022-12-09 23:59:00,,0821.1,4.99,0.00,22.6,20.9,00.0,31.6,24.2,08.6,0000.0,0001.08,0003.35,0000.81
